Zurück zum Katalog

HIPPARCOS

AktivWissenschaftGTO
NORAD 20169·PAYLOAD·🇪🇺 EU

Gestartet Aug 8, 1989 von Guiana Space Centre

Loading…

TLE

AlterndSource: Space-Track

Epoche: Sep 14, 2026, 04:15 UTC

1 20169U 89062B   26257.17762866 -.00000044  00000-0  86910-3 0  9994
2 20169   6.8371 287.1015 7190170  49.2868 353.8352  2.26417982271371

Verfolge HIPPARCOS in Echtzeit mit AllMySat

Download on the App Store